Regional Weather Roundup
Issued by NWS

Home | Current Version | Previous Version | Graphics & Text | Print | Product List | Glossary On
Versions: 1 2 3 4 5 6 7 8 9 10 11 12 13 14 15 16 17 18 19 20 21 22 23 24 25 26 27 28 29 30 31 32 33 34 35 36 37 38 39 40 41 42 43 44 45 46 47 48 49 50
028
ASUS43 KMPX 231001
RWRMN
WEATHER ROUNDUP FOR MINNESOTA
NATIONAL WEATHER SERVICE TWIN CITIES/CHANHASSEN MN
500 AM CDT MON APR 23 2018


NOTE: "FAIR" INDICATES FEW OR NO CLOUDS BELOW 12,000 FEET WITH NO
SIGNIFICANT WEATHER AND/OR OBSTRUCTIONS TO VISIBILITY. N/A MEANS
CURRENT SKY AND/OR WEATHER CONDITIONS ARE NOT AVAILABLE.

MNZ060>063-068>070-231100-
   Twin Cities Metro

CITY           SKY/WX    TMP DP  RH WIND       PRES   REMARKS
TWIN CITIES    FAIR      43  36  76 CALM      30.24S
ST PAUL        FAIR      38  37  97 CALM      30.26R
BLAINE         FAIR      36  34  93 CALM      30.24R
LAKEVILLE      FAIR      32  32 100 CALM      30.25R
EDEN PRAIRIE   FAIR      38  33  82 E3        30.23S
SOUTH ST PAUL  FAIR      38  33  81 CALM      30.25R
LAKE ELMO      FAIR      32  32 100 CALM      30.26R
$$
MNZ001>005-007-008-013>017-022>024-027-028-231100-
   Northwest Minnesota

CITY           SKY/WX    TMP DP  RH WIND       PRES   REMARKS
BEMIDJI        CLOUDY    45  32  61 SW7       30.16S
HALLOCK        FAIR      37  36  93 S5        30.12R
ROSEAU         FAIR      45  39  81 W5        30.12R
WARROAD        FAIR      45  39  81 SW7       30.12R
THIEF RVR FALL FAIR      44  38  79 SW12      30.14R
CROOKSTON      FAIR      43  39  87 SW12      30.14S
FOSSTON        MOCLDY    41  34  75 S12       30.16S
DETROIT LAKES  FAIR      39  32  75 S6        30.19S
MOORHEAD       FAIR      39  36  87 S9        30.19R
PARK RAPIDS    FAIR      35  31  85 CALM      30.19R
MAHNOMEN       FAIR      42  35  76 S14       30.16S
$$
MNZ006-009>011-018-025>026-231100-
   North Central Minnesota

CITY           SKY/WX    TMP DP  RH WIND       PRES   REMARKS
BAUDETTE       CLOUDY    48  37  65 SW7       30.10S
FLAG ISLAND    FAIR      45  37  76 SW13      30.08R
INTL FALLS     CLOUDY    46  35  65 SW6       30.13R
WASKISH        MOCLDY    46  36  66 S3        30.14S
BIG FORK       MOCLDY    39  34  81 S5        30.16S
LONGVILLE      FAIR      36  32  87 SW3       30.20R
GRAND RAPIDS   FAIR      35  32  88 S3        30.21S
CRANE LAKE     MOCLDY    43  34  70 S6        30.16F
ORR            FAIR      43  32  65 S5        30.14S
COOK           FAIR      45  36  70 SW3       30.18S
WALKER         FAIR      42  34  72 SW8       30.17F
$$
MNZ012-019>021-037-231100-
   Northeast Minnesota

CITY           SKY/WX    TMP DP  RH WIND       PRES   REMARKS
DULUTH         FAIR      42  29  59 W3        30.21R
ELY            FAIR      32  27  80 CALM      30.19R
HIBBING        FAIR      27  24  89 CALM      30.19S
EVELETH        FAIR      28  26  90 CALM      30.21S
DULUTH HARBOR  FAIR      34  27  75 CALM      30.23S
TWO HARBORS    FAIR      30  27  86 CALM      30.20S
SILVER BAY     FAIR      28  27  93 CALM      30.20S
GRAND MARAIS     N/A     31  25  78 CALM      30.21S
G MARAIS ARPRT FAIR      39  23  52 W3        30.19F
$$
MNZ029>031-032-039>041-046>048-054>057-064-231100-
   West Central Minnesota

CITY           SKY/WX    TMP DP  RH WIND       PRES   REMARKS
FERGUS FALLS   FAIR      37  34  87 S9        30.19R
WHEATON        CLEAR     36  34  93 CALM      30.22S
MORRIS         CLEAR     36  34  93 SE7       30.20S
ALEXANDRIA     FAIR      41  32  70 S7        30.21F
ELBOW LAKE     FAIR      37  33  87 E7        30.21S
WADENA         FAIR      37  34  87 S5        30.20S
GLENWOOD       FAIR      37  36  93 S3        30.22S
APPLETON       CLEAR     36  32  87 CALM      30.21S FOG
BENSON         CLEAR     32  30  93 CALM      30.23S FOG
ORTONVILLE     CLEAR     37  34  87 SE3       30.20S
MADISON        CLEAR     37  36  93 S5        30.21S
WILLMAR        FAIR      34  32  93 CALM      30.25S
$$
MNZ033>034-036-042>043-049>051-058-059-231100-
   Central Minnesota

CITY           SKY/WX    TMP DP  RH WIND       PRES   REMARKS
ST CLOUD       FAIR      32  32 100 CALM      30.23R
SAUK CENTRE    FAIR      32  31  96 CALM      30.22S
PAYNESVILLE    FAIR      32  32 100 CALM      30.23S
AITKIN         FAIR      27  25  93 CALM      30.20S
PINE RIVER     FAIR      28  27  93 CALM      30.23F
BRAINERD       FAIR      30  26  85 CALM      30.21F
STAPLES        FAIR      30  30 100 CALM      30.21S
LONG PRAIRIE   FAIR      32  32 100 CALM      30.23R FOG
LITTLE FALLS   FAIR      32  28  86 CALM      30.23R FOG
LITCHFIELD     FOG       36  36 100 CALM      30.23R VSB 1
BUFFALO        FAIR      34  32  91 CALM      30.24S
MAPLE LAKE     FAIR      32  32  99 CALM      30.24R
HUTCHINSON       N/A     37  37 100 SE3       30.24S FOG
$$
MNZ037-044-045-052-053-231100-
   East Central Minnesota

CITY           SKY/WX    TMP DP  RH WIND       PRES   REMARKS
PRINCETON      FAIR      30  28  93 CALM      30.24R
MORA           FAIR      32  30  93 CALM      30.25R
CAMBRIDGE      FAIR      34  25  69 CALM      30.24R
RUSH CITY      FAIR      32  29  90 CALM      30.24R
MOOSE LAKE     FAIR      28  27  93 CALM      30.21S
HINCKLEY       FAIR      30  28  93 CALM      30.24S
CLOQUET        FAIR      30  27  86 CALM      30.22R
MCGREGOR       FAIR      32  28  86 CALM      30.22S
$$
MNZ071>073-080-081-089-090-097-098-231100-
   Southwest Minnesota

CITY           SKY/WX    TMP DP  RH WIND       PRES   REMARKS
MONTEVIDEO     CLEAR     36  34  93 CALM      30.22S
GRANITE FALLS  CLEAR     37  35  94 CALM      30.23S
CANBY          CLEAR     38  35  89 CALM      30.22S
MARSHALL       PTCLDY    37  32  82 S3        30.22
REDWOOD FALLS  CLEAR     38  38 100 SE5       30.22S
OLIVIA         CLEAR     39  37  93 CALM      30.22R
PIPESTONE      CLEAR    N/A N/A N/A SE7       30.20S
WINDOM         CLEAR     37  23  56 CALM      30.22S
WORTHINGTON    CLOUDY    37  33  85 CALM      30.22S
JACKSON        CLEAR     36  32  87 CALM      30.23S
TRACY          PTCLDY    42  35  77 S5        30.21S
SLAYTON        CLEAR     36  32  87 CALM      30.22S
$$
MNZ065>067-074>077-082>085-091>093-231100-
   South Central Minnesota

CITY           SKY/WX    TMP DP  RH WIND       PRES   REMARKS
MANKATO        FAIR      41  35  79 E3        30.24R
NEW ULM        FOG       37  36  93 CALM      30.23S VSB 1
ST JAMES       CLEAR     34  34 100 CALM      30.24S
FAIRMONT       CLEAR     34  32  92 CALM      30.24R
GLENCOE        FAIR      38  38 100 CALM      30.23R FOG
OWATONNA       FAIR      36  34  93 SE5       30.24S
WASECA         FAIR      36  32  87 E6        30.25S
ALBERT LEA     FAIR      39  30  70 CALM      30.24S
$$
MNZ078>079-086>088-094>096-231100-
   Southeast Minnesota

CITY           SKY/WX    TMP DP  RH WIND       PRES   REMARKS
ROCHESTER      FAIR      39  29  67 S6        30.25S
RED WING       FAIR      32  28  86 CALM      30.25S
STANTON        CLOUDY    34  32  92 CALM      30.23S
DODGE CENTER   FAIR      37  30  75 SE6       30.25S
WINONA         FAIR      36  34  93 CALM      30.24S
AUSTIN         FAIR      39  28  65 SE3       30.24S
PRESTON        FAIR      42  27  55 CALM      30.25S
$$
ABBREVIATIONS USED IN REMARKS
   TC - TEMPERATURES IN CELSIUS
  WCI - WIND CHILL INDEX
   HX - HEAT INDEX
  VSB - VISIBILITY
$$




USA.gov is the U.S. government's official web portal to all federal, state and local government web resources and services.